Wetterdaten: Woche 26.01.26 - 01.02.26 (KW5)
Datum Zeit Temp. I. Temp. A. Feuchte I. Feuchte A. Luftdruck Regen Wind Richtung Sonnenschein Solar Taupunkt Windchill Windböen
26.01.2026 00:00 22,5 °C -1,6 °C 50 % 92 % 996,3 hPa 0,0 l/m² 5,1 km/h (1 Bft) N-NW 0,00 h 0 W/m² -2,7 °C -1,9 °C 9,0 km/h (2 Bft)
26.01.2026 01:00 22,5 °C -1,8 °C 50 % 92 % 995,4 hPa 0,0 l/m² 6,7 km/h (2 Bft) NW 0,00 h 0 W/m² -2,9 °C -2,8 °C 11,0 km/h (2 Bft)
26.01.2026 02:00 22,4 °C -2,0 °C 49 % 92 % 995,1 hPa 0,0 l/m² 6,4 km/h (2 Bft) NW 0,00 h 0 W/m² -3,1 °C -2,9 °C 11,4 km/h (2 Bft)
26.01.2026 03:00 22,4 °C -2,2 °C 49 % 92 % 994,6 hPa 0,0 l/m² 4,6 km/h (1 Bft) NW 0,00 h 0 W/m² -3,3 °C -2,7 °C 9,2 km/h (2 Bft)
26.01.2026 04:00 22,4 °C -2,2 °C 49 % 92 % 994,5 hPa 0,0 l/m² 6,2 km/h (2 Bft) NW 0,00 h 0 W/m² -3,3 °C -3,1 °C 11,5 km/h (2 Bft)
26.01.2026 05:00 22,4 °C -2,2 °C 49 % 92 % 994,4 hPa 0,0 l/m² 4,4 km/h (1 Bft) W-NW 0,00 h 0 W/m² -3,4 °C -3,1 °C 9,5 km/h (2 Bft)
26.01.2026 06:00 22,4 °C -2,3 °C 48 % 92 % 994,6 hPa 0,0 l/m² 0,7 km/h (0 Bft) W 0,00 h 0 W/m² -3,4 °C -2,3 °C 2,8 km/h (1 Bft)
26.01.2026 07:00 22,4 °C -2,3 °C 47 % 92 % 994,9 hPa 0,0 l/m² 1,8 km/h (1 Bft) W 0,00 h 0 W/m² -3,4 °C -2,3 °C 4,5 km/h (1 Bft)
26.01.2026 08:00 22,4 °C -2,3 °C 47 % 93 % 995,6 hPa 0,0 l/m² 2,0 km/h (1 Bft) SW 0,00 h 5 W/m² -3,3 °C -2,3 °C 4,5 km/h (1 Bft)
26.01.2026 09:00 22,4 °C -2,1 °C 47 % 93 % 996,3 hPa 0,0 l/m² 1,1 km/h (1 Bft) SW 0,00 h 9 W/m² -3,2 °C -2,1 °C 3,4 km/h (1 Bft)
26.01.2026 10:00 22,5 °C -1,8 °C 47 % 92 % 996,7 hPa 0,0 l/m² 3,2 km/h (1 Bft) SW 0,00 h 20 W/m² -2,9 °C -1,8 °C 5,5 km/h (2 Bft)
26.01.2026 11:00 22,6 °C -1,6 °C 48 % 92 % 997,1 hPa 0,0 l/m² 3,8 km/h (1 Bft) SW 0,00 h 20 W/m² -2,8 °C -1,7 °C 6,1 km/h (2 Bft)
26.01.2026 12:00 22,6 °C -1,4 °C 47 % 91 % 997,5 hPa 0,0 l/m² 2,6 km/h (1 Bft) S-SW 0,00 h 26 W/m² -2,7 °C -1,4 °C 4,3 km/h (1 Bft)
26.01.2026 13:00 22,6 °C -1,3 °C 48 % 90 % 997,8 hPa 0,0 l/m² 7,5 km/h (2 Bft) SW 0,00 h 29 W/m² -2,7 °C -2,8 °C 10,3 km/h (2 Bft)
26.01.2026 14:00 22,7 °C -1,3 °C 47 % 91 % 998,1 hPa 0,0 l/m² 7,4 km/h (2 Bft) S-SW 0,00 h 30 W/m² -2,6 °C -2,9 °C 10,3 km/h (2 Bft)
26.01.2026 15:00 22,5 °C -1,3 °C 47 % 91 % 998,8 hPa 0,0 l/m² 9,0 km/h (2 Bft) S-SW 0,00 h 14 W/m² -2,6 °C -3,9 °C 12,1 km/h (2 Bft)
26.01.2026 16:00 22,3 °C -1,4 °C 47 % 91 % 999,3 hPa 0,0 l/m² 7,9 km/h (2 Bft) SW 0,00 h 5 W/m² -2,7 °C -3,1 °C 11,5 km/h (2 Bft)
26.01.2026 17:00 22,3 °C -1,5 °C 47 % 91 % 999,8 hPa 0,0 l/m² 7,7 km/h (2 Bft) SW 0,00 h 0 W/m² -2,8 °C -3,4 °C 11,4 km/h (2 Bft)
26.01.2026 18:00 22,3 °C -1,6 °C 47 % 91 % 1000,3 hPa 0,0 l/m² 6,1 km/h (2 Bft) SW 0,00 h 0 W/m² -2,8 °C -2,7 °C 9,0 km/h (2 Bft)
26.01.2026 19:00 22,3 °C -1,5 °C 48 % 91 % 1000,7 hPa 0,0 l/m² 4,3 km/h (1 Bft) SW 0,00 h 0 W/m² -2,8 °C -1,7 °C 6,5 km/h (2 Bft)
26.01.2026 20:00 22,4 °C -1,4 °C 50 % 92 % 1001,1 hPa 0,0 l/m² 4,4 km/h (1 Bft) SW 0,00 h 0 W/m² -2,6 °C -1,6 °C 7,0 km/h (2 Bft)
26.01.2026 21:00 22,6 °C -1,1 °C 50 % 92 % 1001,8 hPa 0,0 l/m² 2,8 km/h (1 Bft) W-SW 0,00 h 0 W/m² -2,2 °C -1,2 °C 5,4 km/h (1 Bft)
26.01.2026 22:00 22,4 °C -0,7 °C 49 % 92 % 1002,3 hPa 0,0 l/m² 7,2 km/h (2 Bft) SW 0,00 h 0 W/m² -1,8 °C -2,3 °C 11,3 km/h (2 Bft)
26.01.2026 23:00 22,4 °C -0,3 °C 50 % 93 % 1002,5 hPa 0,0 l/m² 10,6 km/h (2 Bft) W-SW 0,00 h 0 W/m² -1,3 °C -4,1 °C 15,0 km/h (3 Bft)
27.01.2026 00:00 22,4 °C -0,2 °C 51 % 93 % 1002,6 hPa 0,0 l/m² 4,6 km/h (1 Bft) W-SW 0,00 h 0 W/m² -1,2 °C -0,5 °C 7,7 km/h (2 Bft)
27.01.2026 01:00 22,4 °C -0,0 °C 51 % 93 % 1002,6 hPa 0,0 l/m² 6,1 km/h (2 Bft) SW 0,00 h 0 W/m² -1,0 °C -0,5 °C 10,5 km/h (2 Bft)
27.01.2026 02:00 22,3 °C 0,2 °C 51 % 93 % 1002,9 hPa 0,0 l/m² 10,0 km/h (2 Bft) SW 0,00 h 0 W/m² -0,8 °C -3,1 °C 14,8 km/h (3 Bft)
27.01.2026 03:00 22,3 °C 0,4 °C 51 % 92 % 1002,8 hPa 0,0 l/m² 9,8 km/h (2 Bft) W-SW 0,00 h 0 W/m² -0,7 °C -2,8 °C 14,9 km/h (3 Bft)
27.01.2026 04:00 22,3 °C 0,3 °C 51 % 92 % 1002,7 hPa 0,0 l/m² 2,3 km/h (1 Bft) W-SW 0,00 h 0 W/m² -0,9 °C 0,2 °C 4,3 km/h (1 Bft)
27.01.2026 05:00 22,4 °C 0,1 °C 51 % 92 % 1002,7 hPa 0,0 l/m² 0,0 km/h (0 Bft) W-SW 0,00 h 0 W/m² -1,1 °C 0,1 °C 0,0 km/h (0 Bft)
27.01.2026 06:00 22,4 °C -0,2 °C 50 % 92 % 1002,9 hPa 0,0 l/m² 0,0 km/h (0 Bft) W-SW 0,00 h 0 W/m² -1,3 °C -0,2 °C 0,0 km/h (0 Bft)
27.01.2026 07:00 22,3 °C -0,3 °C 48 % 92 % 1003,1 hPa 0,0 l/m² 0,0 km/h (0 Bft) W-SW 0,00 h 0 W/m² -1,4 °C -0,3 °C 0,0 km/h (0 Bft)
27.01.2026 08:00 22,3 °C -0,3 °C 48 % 93 % 1003,2 hPa 0,0 l/m² 0,0 km/h (0 Bft) W-SW 0,00 h 6 W/m² -1,3 °C -0,3 °C 0,0 km/h (0 Bft)
27.01.2026 09:00 22,4 °C 0,0 °C 48 % 93 % 1002,9 hPa 0,0 l/m² 0,0 km/h (0 Bft) W-SW 0,00 h 17 W/m² -1,0 °C 0,0 °C 0,0 km/h (0 Bft)
27.01.2026 10:00 22,4 °C 0,7 °C 48 % 93 % 1002,9 hPa 0,0 l/m² 0,0 km/h (0 Bft) W-SW 0,00 h 37 W/m² -0,3 °C 0,7 °C 0,0 km/h (0 Bft)
27.01.2026 11:00 22,4 °C 1,4 °C 48 % 93 % 1002,8 hPa 0,0 l/m² 0,0 km/h (0 Bft) W-SW 0,97 h 81 W/m² 0,4 °C 1,4 °C 0,0 km/h (0 Bft)
27.01.2026 12:00 22,4 °C 1,5 °C 48 % 92 % 1002,7 hPa 0,0 l/m² 0,0 km/h (0 Bft) W-SW 1,00 h 130 W/m² 0,4 °C 1,5 °C 0,0 km/h (0 Bft)
27.01.2026 13:00 22,3 °C 1,1 °C 48 % 90 % 1002,2 hPa 0,8 l/m² 0,0 km/h (0 Bft) O-NO 1,00 h 138 W/m² -0,3 °C 1,1 °C 0,0 km/h (0 Bft)
27.01.2026 14:00 22,3 °C 0,8 °C 48 % 90 % 1001,9 hPa 0,8 l/m² 2,6 km/h (1 Bft) O-NO 0,70 h 73 W/m² -0,6 °C 0,8 °C 4,8 km/h (1 Bft)
27.01.2026 15:00 22,2 °C 0,6 °C 48 % 90 % 1001,6 hPa 0,2 l/m² 2,7 km/h (1 Bft) O-NO 0,00 h 30 W/m² -0,8 °C 0,6 °C 5,6 km/h (2 Bft)
27.01.2026 16:00 22,1 °C 0,4 °C 48 % 91 % 1000,8 hPa 0,2 l/m² 4,1 km/h (1 Bft) O-NO 0,00 h 15 W/m² -0,9 °C -0,2 °C 7,5 km/h (2 Bft)
27.01.2026 17:00 22,0 °C -0,1 °C 48 % 92 % 1000,7 hPa 0,2 l/m² 10,1 km/h (2 Bft) O-NO 0,00 h 0 W/m² -1,3 °C -3,6 °C 15,4 km/h (3 Bft)
27.01.2026 18:00 22,0 °C -0,5 °C 48 % 93 % 1000,5 hPa 0,0 l/m² 8,5 km/h (2 Bft) O 0,00 h 0 W/m² -1,5 °C -2,6 °C 13,6 km/h (3 Bft)
27.01.2026 19:00 22,0 °C -0,6 °C 48 % 93 % 1000,3 hPa 0,0 l/m² 7,5 km/h (2 Bft) O-NO 0,00 h 0 W/m² -1,6 °C -2,4 °C 11,5 km/h (2 Bft)
27.01.2026 20:00 22,0 °C -0,6 °C 48 % 93 % 1000,4 hPa 0,0 l/m² 6,8 km/h (2 Bft) O 0,00 h 0 W/m² -1,6 °C -1,8 °C 10,9 km/h (2 Bft)
27.01.2026 21:00 22,2 °C -0,7 °C 48 % 93 % 999,9 hPa 0,0 l/m² 6,7 km/h (2 Bft) O-NO 0,00 h 0 W/m² -1,7 °C -1,6 °C 11,0 km/h (2 Bft)
27.01.2026 22:00 22,2 °C -0,7 °C 47 % 93 % 999,6 hPa 0,0 l/m² 8,0 km/h (2 Bft) O-NO 0,00 h 0 W/m² -1,7 °C -2,6 °C 12,5 km/h (2 Bft)
27.01.2026 23:00 22,2 °C -0,9 °C 47 % 94 % 999,4 hPa 0,0 l/m² 10,2 km/h (2 Bft) O-NO 0,00 h 0 W/m² -1,8 °C -4,4 °C 14,9 km/h (3 Bft)
28.01.2026 00:00 22,1 °C -1,1 °C 48 % 94 % 999,2 hPa 0,0 l/m² 12,0 km/h (2 Bft) O-NO 0,00 h 0 W/m² -1,9 °C -6,1 °C 17,4 km/h (3 Bft)
28.01.2026 01:00 22,1 °C -1,2 °C 48 % 94 % 999,3 hPa 0,0 l/m² 12,4 km/h (2 Bft) O-NO 0,00 h 0 W/m² -2,0 °C -6,5 °C 17,4 km/h (3 Bft)
28.01.2026 02:00 22,1 °C -1,2 °C 47 % 94 % 999,1 hPa 0,0 l/m² 12,5 km/h (2 Bft) O-NO 0,00 h 0 W/m² -2,1 °C -6,6 °C 18,0 km/h (3 Bft)
28.01.2026 03:00 22,1 °C -1,2 °C 47 % 94 % 998,8 hPa 0,0 l/m² 13,8 km/h (3 Bft) O-NO 0,00 h 0 W/m² -2,1 °C -7,4 °C 19,2 km/h (3 Bft)
28.01.2026 04:00 22,1 °C -1,1 °C 47 % 94 % 998,7 hPa 0,0 l/m² 11,5 km/h (2 Bft) O 0,00 h 0 W/m² -2,0 °C -5,7 °C 16,6 km/h (3 Bft)
28.01.2026 05:00 22,3 °C -1,1 °C 47 % 94 % 998,5 hPa 0,0 l/m² 10,6 km/h (2 Bft) O-NO 0,00 h 0 W/m² -1,9 °C -5,0 °C 15,9 km/h (3 Bft)
28.01.2026 06:00 22,3 °C -1,1 °C 47 % 94 % 998,4 hPa 0,0 l/m² 9,4 km/h (2 Bft) O-NO 0,00 h 0 W/m² -1,9 °C -4,1 °C 15,7 km/h (3 Bft)
28.01.2026 07:00 22,3 °C -1,1 °C 46 % 94 % 998,3 hPa 0,0 l/m² 5,8 km/h (2 Bft) NO 0,00 h 0 W/m² -1,9 °C -2,0 °C 12,6 km/h (2 Bft)
28.01.2026 08:00 22,3 °C -1,1 °C 46 % 94 % 998,3 hPa 0,0 l/m² 2,5 km/h (1 Bft) NO 0,00 h 23 W/m² -1,9 °C -1,1 °C 8,4 km/h (2 Bft)
28.01.2026 09:00 22,3 °C -0,9 °C 46 % 94 % 998,4 hPa 0,0 l/m² 4,0 km/h (1 Bft) NO 0,82 h 66 W/m² -1,8 °C -1,3 °C 9,2 km/h (2 Bft)
28.01.2026 10:00 22,3 °C -0,3 °C 46 % 93 % 998,4 hPa 0,0 l/m² 4,8 km/h (1 Bft) NO 1,00 h 99 W/m² -1,3 °C -0,7 °C 10,1 km/h (2 Bft)
28.01.2026 11:00 22,4 °C 0,4 °C 46 % 92 % 998,3 hPa 0,0 l/m² 5,3 km/h (1 Bft) O-NO 1,00 h 107 W/m² -0,7 °C -0,2 °C 11,4 km/h (2 Bft)
28.01.2026 12:00 22,4 °C 0,7 °C 46 % 91 % 997,9 hPa 0,2 l/m² 9,1 km/h (2 Bft) O-NO 1,00 h 105 W/m² -0,6 °C -2,0 °C 17,0 km/h (3 Bft)
28.01.2026 13:00 22,4 °C 0,9 °C 46 % 89 % 997,7 hPa 0,2 l/m² 9,9 km/h (2 Bft) O-NO 1,00 h 96 W/m² -0,6 °C -2,2 °C 16,6 km/h (3 Bft)
28.01.2026 14:00 22,3 °C 0,9 °C 46 % 88 % 997,7 hPa 0,0 l/m² 10,5 km/h (2 Bft) O-NO 1,00 h 74 W/m² -0,8 °C -2,7 °C 17,4 km/h (3 Bft)
28.01.2026 15:00 22,2 °C 1,0 °C 47 % 89 % 997,8 hPa 0,2 l/m² 8,7 km/h (2 Bft) O-NO 1,00 h 71 W/m² -0,7 °C -1,3 °C 15,0 km/h (3 Bft)
28.01.2026 16:00 22,2 °C 0,7 °C 46 % 88 % 998,1 hPa 0,2 l/m² 9,6 km/h (2 Bft) NO 0,12 h 29 W/m² -1,0 °C -2,2 °C 16,8 km/h (3 Bft)
28.01.2026 17:00 22,1 °C 0,2 °C 46 % 89 % 998,6 hPa 0,0 l/m² 9,0 km/h (2 Bft) NO 0,00 h 0 W/m² -1,4 °C -2,2 °C 16,5 km/h (3 Bft)
28.01.2026 18:00 22,1 °C 0,0 °C 47 % 89 % 998,8 hPa 0,0 l/m² 8,3 km/h (2 Bft) NO 0,00 h 0 W/m² -1,5 °C -2,0 °C 16,7 km/h (3 Bft)
28.01.2026 19:00 22,0 °C -0,1 °C 47 % 90 % 998,7 hPa 0,0 l/m² 10,2 km/h (2 Bft) NO 0,00 h 0 W/m² -1,6 °C -3,7 °C 18,7 km/h (3 Bft)
28.01.2026 20:00 22,1 °C -0,2 °C 47 % 89 % 999,1 hPa 0,0 l/m² 10,2 km/h (2 Bft) NO 0,00 h 0 W/m² -1,8 °C -3,8 °C 18,1 km/h (3 Bft)
28.01.2026 21:00 22,1 °C -0,3 °C 47 % 89 % 999,2 hPa 0,0 l/m² 10,3 km/h (2 Bft) NO 0,00 h 0 W/m² -1,9 °C -4,0 °C 17,9 km/h (3 Bft)
28.01.2026 22:00 22,1 °C -0,5 °C 46 % 89 % 999,4 hPa 0,0 l/m² 9,9 km/h (2 Bft) O-NO 0,00 h 0 W/m² -2,1 °C -3,9 °C 17,7 km/h (3 Bft)
28.01.2026 23:00 22,2 °C -0,7 °C 46 % 89 % 999,6 hPa 0,0 l/m² 9,5 km/h (2 Bft) O-NO 0,00 h 0 W/m² -2,3 °C -3,6 °C 17,0 km/h (3 Bft)
29.01.2026 00:00 22,2 °C -0,7 °C 46 % 89 % 999,7 hPa 0,0 l/m² 9,7 km/h (2 Bft) O-NO 0,00 h 0 W/m² -2,3 °C -3,9 °C 17,8 km/h (3 Bft)
29.01.2026 01:00 22,2 °C -0,7 °C 46 % 89 % 999,8 hPa 0,0 l/m² 8,1 km/h (2 Bft) O-NO 0,00 h 0 W/m² -2,3 °C -2,7 °C 13,6 km/h (3 Bft)
29.01.2026 02:00 22,3 °C -0,7 °C 46 % 89 % 1000,0 hPa 0,0 l/m² 10,2 km/h (2 Bft) O-NO 0,00 h 0 W/m² -2,3 °C -4,2 °C 16,9 km/h (3 Bft)
29.01.2026 03:00 22,2 °C -0,7 °C 46 % 89 % 1000,3 hPa 0,0 l/m² 10,7 km/h (2 Bft) O-NO 0,00 h 0 W/m² -2,3 °C -4,6 °C 17,6 km/h (3 Bft)
29.01.2026 04:00 22,2 °C -0,9 °C 46 % 88 % 1000,4 hPa 0,0 l/m² 8,3 km/h (2 Bft) O-NO 0,00 h 0 W/m² -2,6 °C -3,1 °C 14,8 km/h (3 Bft)
29.01.2026 05:00 22,3 °C -1,2 °C 46 % 89 % 1000,7 hPa 0,0 l/m² 5,5 km/h (2 Bft) O-NO 0,00 h 0 W/m² -2,7 °C -1,6 °C 10,6 km/h (2 Bft)
29.01.2026 06:00 22,2 °C -1,2 °C 45 % 89 % 1000,9 hPa 0,0 l/m² 4,8 km/h (1 Bft) NO 0,00 h 0 W/m² -2,8 °C -1,5 °C 8,9 km/h (2 Bft)
29.01.2026 07:00 22,2 °C -1,1 °C 44 % 89 % 1001,3 hPa 0,0 l/m² 4,9 km/h (1 Bft) O-NO 0,00 h 0 W/m² -2,7 °C -1,3 °C 8,6 km/h (2 Bft)
29.01.2026 08:00 22,2 °C -1,1 °C 45 % 89 % 1001,8 hPa 0,0 l/m² 7,3 km/h (2 Bft) O-NO 0,00 h 12 W/m² -2,7 °C -2,7 °C 12,9 km/h (3 Bft)
29.01.2026 09:00 22,2 °C -0,9 °C 45 % 89 % 1002,1 hPa 0,0 l/m² 6,5 km/h (2 Bft) O-NO 0,00 h 31 W/m² -2,4 °C -1,9 °C 12,4 km/h (2 Bft)
29.01.2026 10:00 22,2 °C -0,6 °C 45 % 88 % 1002,4 hPa 0,0 l/m² 7,4 km/h (2 Bft) O-NO 0,77 h 59 W/m² -2,2 °C -2,3 °C 13,6 km/h (3 Bft)
29.01.2026 11:00 22,3 °C -0,3 °C 45 % 88 % 1002,5 hPa 0,0 l/m² 6,9 km/h (2 Bft) O-NO 0,87 h 68 W/m² -2,1 °C -1,8 °C 12,6 km/h (3 Bft)
29.01.2026 12:00 22,3 °C -0,2 °C 45 % 87 % 1002,3 hPa 0,0 l/m² 7,3 km/h (2 Bft) NO 0,98 h 63 W/m² -2,1 °C -1,6 °C 14,2 km/h (3 Bft)
29.01.2026 13:00 22,3 °C -0,2 °C 45 % 87 % 1002,1 hPa 0,0 l/m² 7,3 km/h (2 Bft) NO 1,02 h 85 W/m² -2,1 °C -1,7 °C 13,9 km/h (3 Bft)
29.01.2026 14:00 22,3 °C -0,1 °C 45 % 87 % 1002,1 hPa 0,0 l/m² 6,9 km/h (2 Bft) NO 1,00 h 82 W/m² -2,0 °C -1,2 °C 13,0 km/h (3 Bft)
29.01.2026 15:00 22,3 °C -0,4 °C 45 % 88 % 1002,2 hPa 0,0 l/m² 4,6 km/h (1 Bft) N-NO 0,07 h 31 W/m² -2,2 °C -0,8 °C 9,3 km/h (2 Bft)
29.01.2026 16:00 22,2 °C -0,8 °C 45 % 89 % 1002,4 hPa 0,0 l/m² 3,3 km/h (1 Bft) N-NO 0,00 h 10 W/m² -2,4 °C -0,8 °C 7,3 km/h (2 Bft)
29.01.2026 17:00 22,2 °C -1,0 °C 45 % 90 % 1002,4 hPa 0,0 l/m² 3,0 km/h (1 Bft) NO 0,00 h 0 W/m² -2,5 °C -1,0 °C 6,2 km/h (2 Bft)
29.01.2026 18:00 22,2 °C -1,1 °C 45 % 91 % 1002,8 hPa 0,0 l/m² 1,7 km/h (1 Bft) NO 0,00 h 0 W/m² -2,4 °C -1,1 °C 4,5 km/h (1 Bft)
29.01.2026 19:00 22,2 °C -1,2 °C 45 % 91 % 1002,8 hPa 0,0 l/m² 2,0 km/h (1 Bft) NO 0,00 h 0 W/m² -2,4 °C -1,2 °C 4,7 km/h (1 Bft)
29.01.2026 20:00 22,1 °C -1,3 °C 45 % 91 % 1003,1 hPa 0,0 l/m² 1,4 km/h (1 Bft) NO 0,00 h 0 W/m² -2,6 °C -1,3 °C 3,8 km/h (1 Bft)
29.01.2026 21:00 22,3 °C -1,4 °C 46 % 92 % 1003,3 hPa 0,0 l/m² 1,2 km/h (1 Bft) NO 0,00 h 0 W/m² -2,6 °C -1,4 °C 3,8 km/h (1 Bft)
29.01.2026 22:00 22,3 °C -1,6 °C 46 % 92 % 1003,1 hPa 0,0 l/m² 3,0 km/h (1 Bft) O-NO 0,00 h 0 W/m² -2,7 °C -1,7 °C 6,1 km/h (2 Bft)
29.01.2026 23:00 22,2 °C -1,8 °C 47 % 92 % 1003,2 hPa 0,0 l/m² 5,1 km/h (1 Bft) O-NO 0,00 h 0 W/m² -2,9 °C -2,3 °C 9,6 km/h (2 Bft)
30.01.2026 00:00 22,2 °C -1,9 °C 48 % 92 % 1003,1 hPa 0,0 l/m² 5,2 km/h (1 Bft) O-NO 0,00 h 0 W/m² -3,0 °C -2,4 °C 10,8 km/h (2 Bft)
30.01.2026 01:00 22,3 °C -2,1 °C 49 % 92 % 1002,9 hPa 0,0 l/m² 7,5 km/h (2 Bft) O-NO 0,00 h 0 W/m² -3,2 °C -3,7 °C 13,7 km/h (3 Bft)
30.01.2026 02:00 22,2 °C -2,1 °C 49 % 91 % 1003,0 hPa 0,0 l/m² 8,8 km/h (2 Bft) O-NO 0,00 h 0 W/m² -3,4 °C -4,6 °C 14,6 km/h (3 Bft)
30.01.2026 03:00 22,2 °C -2,2 °C 49 % 91 % 1003,0 hPa 0,0 l/m² 7,8 km/h (2 Bft) O-NO 0,00 h 0 W/m² -3,5 °C -4,1 °C 12,8 km/h (3 Bft)
30.01.2026 04:00 22,2 °C -2,2 °C 49 % 91 % 1002,7 hPa 0,0 l/m² 6,5 km/h (2 Bft) O-NO 0,00 h 0 W/m² -3,5 °C -3,0 °C 11,4 km/h (2 Bft)
30.01.2026 05:00 22,2 °C -2,2 °C 49 % 91 % 1002,7 hPa 0,0 l/m² 5,9 km/h (2 Bft) O-NO 0,00 h 0 W/m² -3,5 °C -2,7 °C 10,8 km/h (2 Bft)
30.01.2026 06:00 22,2 °C -2,3 °C 48 % 91 % 1003,0 hPa 0,0 l/m² 6,9 km/h (2 Bft) O-NO 0,00 h 0 W/m² -3,5 °C -3,3 °C 12,1 km/h (2 Bft)
30.01.2026 07:00 22,2 °C -2,2 °C 46 % 91 % 1003,2 hPa 0,0 l/m² 6,1 km/h (2 Bft) O-NO 0,00 h 0 W/m² -3,5 °C -2,8 °C 10,7 km/h (2 Bft)
30.01.2026 08:00 22,2 °C -2,1 °C 46 % 92 % 1003,4 hPa 0,0 l/m² 7,1 km/h (2 Bft) O-NO 0,00 h 9 W/m² -3,2 °C -3,3 °C 12,8 km/h (3 Bft)
30.01.2026 09:00 22,2 °C -1,8 °C 47 % 92 % 1003,7 hPa 0,0 l/m² 7,3 km/h (2 Bft) O-NO 0,00 h 25 W/m² -2,9 °C -3,1 °C 12,2 km/h (2 Bft)
30.01.2026 10:00 22,3 °C -1,3 °C 47 % 91 % 1003,8 hPa 0,0 l/m² 8,9 km/h (2 Bft) O-NO 0,23 h 47 W/m² -2,6 °C -3,9 °C 14,1 km/h (3 Bft)
30.01.2026 11:00 22,3 °C -1,0 °C 47 % 90 % 1003,9 hPa 0,0 l/m² 9,2 km/h (2 Bft) O 0,57 h 57 W/m² -2,3 °C -3,8 °C 13,5 km/h (3 Bft)
30.01.2026 12:00 22,3 °C -0,6 °C 47 % 90 % 1003,7 hPa 0,0 l/m² 9,8 km/h (2 Bft) O-NO 1,00 h 101 W/m² -2,0 °C -3,9 °C 14,2 km/h (3 Bft)
30.01.2026 13:00 22,3 °C -0,1 °C 45 % 89 % 1003,4 hPa 0,4 l/m² 9,7 km/h (2 Bft) O 1,00 h 152 W/m² -1,7 °C -3,2 °C 14,6 km/h (3 Bft)
30.01.2026 14:00 22,4 °C 0,1 °C 45 % 88 % 1003,4 hPa 0,2 l/m² 10,5 km/h (2 Bft) O-NO 1,00 h 136 W/m² -1,6 °C -3,6 °C 15,5 km/h (3 Bft)
30.01.2026 15:00 21,9 °C 0,1 °C 40 % 88 % 1003,5 hPa 0,2 l/m² 11,0 km/h (2 Bft) O-NO 0,73 h 71 W/m² -1,7 °C -4,1 °C 15,7 km/h (3 Bft)
30.01.2026 16:00 21,7 °C -0,1 °C 41 % 89 % 1003,6 hPa 0,0 l/m² 6,6 km/h (2 Bft) O-NO 0,00 h 15 W/m² -1,7 °C -0,9 °C 10,7 km/h (2 Bft)
30.01.2026 17:00 21,7 °C -0,2 °C 43 % 89 % 1003,9 hPa 0,0 l/m² 4,7 km/h (1 Bft) O-NO 0,00 h 0 W/m² -1,8 °C -0,3 °C 7,7 km/h (2 Bft)
30.01.2026 18:00 21,7 °C -0,3 °C 44 % 90 % 1004,1 hPa 0,0 l/m² 3,4 km/h (1 Bft) O-NO 0,00 h 0 W/m² -1,7 °C -0,3 °C 6,2 km/h (2 Bft)
30.01.2026 19:00 21,7 °C -0,4 °C 45 % 90 % 1004,2 hPa 0,0 l/m² 5,5 km/h (2 Bft) O-NO 0,00 h 0 W/m² -1,8 °C -0,8 °C 9,3 km/h (2 Bft)
30.01.2026 20:00 21,9 °C -0,3 °C 46 % 90 % 1004,2 hPa 0,0 l/m² 5,6 km/h (2 Bft) O-NO 0,00 h 0 W/m² -1,8 °C -0,7 °C 10,1 km/h (2 Bft)
30.01.2026 21:00 22,1 °C -0,3 °C 46 % 90 % 1004,3 hPa 0,0 l/m² 5,8 km/h (2 Bft) O-NO 0,00 h 0 W/m² -1,7 °C -1,2 °C 9,8 km/h (2 Bft)
30.01.2026 22:00 22,1 °C -0,8 °C 44 % 90 % 1004,4 hPa 0,0 l/m² 2,6 km/h (1 Bft) O-NO 0,00 h 0 W/m² -2,2 °C -1,0 °C 5,5 km/h (2 Bft)
30.01.2026 23:00 22,1 °C -0,8 °C 45 % 91 % 1004,5 hPa 0,0 l/m² 3,8 km/h (1 Bft) O-NO 0,00 h 0 W/m² -2,1 °C -1,0 °C 7,7 km/h (2 Bft)
31.01.2026 00:00 22,1 °C -0,8 °C 45 % 91 % 1004,6 hPa 0,0 l/m² 3,8 km/h (1 Bft) O-NO 0,00 h 0 W/m² -2,0 °C -0,9 °C 7,5 km/h (2 Bft)
31.01.2026 01:00 22,1 °C -0,5 °C 45 % 92 % 1004,6 hPa 0,0 l/m² 6,8 km/h (2 Bft) O 0,00 h 0 W/m² -1,6 °C -1,6 °C 11,0 km/h (2 Bft)
31.01.2026 02:00 22,1 °C -0,3 °C 45 % 92 % 1004,9 hPa 0,0 l/m² 5,6 km/h (2 Bft) O-NO 0,00 h 0 W/m² -1,4 °C -0,8 °C 9,6 km/h (2 Bft)
31.01.2026 03:00 22,1 °C -0,3 °C 45 % 92 % 1004,8 hPa 0,0 l/m² 5,7 km/h (2 Bft) O-NO 0,00 h 0 W/m² -1,4 °C -0,8 °C 9,5 km/h (2 Bft)
31.01.2026 04:00 22,1 °C -0,3 °C 45 % 92 % 1004,9 hPa 0,0 l/m² 8,7 km/h (2 Bft) O-NO 0,00 h 0 W/m² -1,4 °C -3,0 °C 13,6 km/h (3 Bft)
31.01.2026 05:00 22,2 °C -0,4 °C 45 % 92 % 1005,1 hPa 0,0 l/m² 11,3 km/h (2 Bft) O 0,00 h 0 W/m² -1,6 °C -4,8 °C 16,2 km/h (3 Bft)
31.01.2026 06:00 22,2 °C -0,5 °C 45 % 91 % 1005,5 hPa 0,0 l/m² 12,7 km/h (3 Bft) O 0,00 h 0 W/m² -1,8 °C -5,9 °C 17,5 km/h (3 Bft)
31.01.2026 07:00 22,2 °C -0,7 °C 45 % 91 % 1005,9 hPa 0,0 l/m² 15,8 km/h (3 Bft) O-NO 0,00 h 0 W/m² -1,9 °C -8,1 °C 21,8 km/h (4 Bft)
31.01.2026 08:00 22,3 °C -0,7 °C 46 % 91 % 1006,5 hPa 0,0 l/m² 18,4 km/h (3 Bft) O-NO 0,00 h 22 W/m² -2,0 °C -9,7 °C 24,9 km/h (4 Bft)
31.01.2026 09:00 22,4 °C -0,6 °C 47 % 90 % 1007,2 hPa 0,0 l/m² 19,2 km/h (3 Bft) O 0,83 h 74 W/m² -2,0 °C -9,9 °C 25,8 km/h (4 Bft)
31.01.2026 10:00 22,3 °C -0,4 °C 45 % 89 % 1007,6 hPa 0,0 l/m² 18,7 km/h (3 Bft) O-NO 1,00 h 131 W/m² -2,0 °C -9,4 °C 24,0 km/h (4 Bft)
31.01.2026 11:00 22,3 °C -0,3 °C 44 % 88 % 1007,9 hPa 0,0 l/m² 18,4 km/h (3 Bft) O 1,00 h 154 W/m² -2,0 °C -9,1 °C 23,9 km/h (4 Bft)
31.01.2026 12:00 22,3 °C -0,1 °C 45 % 87 % 1008,3 hPa 0,0 l/m² 17,0 km/h (3 Bft) O-NO 0,98 h 172 W/m² -1,9 °C -8,2 °C 23,5 km/h (4 Bft)
31.01.2026 13:00 22,4 °C 0,1 °C 46 % 87 % 1008,4 hPa 0,0 l/m² 17,4 km/h (3 Bft) O-NO 1,02 h 170 W/m² -1,9 °C -8,2 °C 24,7 km/h (4 Bft)
31.01.2026 14:00 22,4 °C -0,1 °C 48 % 86 % 1008,9 hPa 0,0 l/m² 16,2 km/h (3 Bft) O-NO 1,00 h 132 W/m² -2,1 °C -7,7 °C 22,6 km/h (4 Bft)
31.01.2026 15:00 22,3 °C -0,4 °C 49 % 87 % 1009,5 hPa 0,0 l/m² 15,4 km/h (3 Bft) O-NO 0,78 h 77 W/m² -2,3 °C -7,6 °C 21,3 km/h (4 Bft)
31.01.2026 16:00 22,2 °C -0,8 °C 49 % 87 % 1010,4 hPa 0,0 l/m² 13,1 km/h (3 Bft) O-NO 0,00 h 18 W/m² -2,7 °C -6,6 °C 18,6 km/h (3 Bft)
31.01.2026 17:00 22,1 °C -1,3 °C 49 % 88 % 1011,0 hPa 0,0 l/m² 10,5 km/h (2 Bft) O-NO 0,00 h 0 W/m² -3,1 °C -5,2 °C 15,5 km/h (3 Bft)
31.01.2026 18:00 22,1 °C -1,8 °C 48 % 88 % 1011,5 hPa 0,0 l/m² 12,2 km/h (2 Bft) O-NO 0,00 h 0 W/m² -3,5 °C -7,0 °C 17,2 km/h (3 Bft)
31.01.2026 19:00 22,2 °C -2,2 °C 48 % 87 % 1012,0 hPa 0,0 l/m² 12,8 km/h (3 Bft) O-NO 0,00 h 0 W/m² -4,1 °C -8,0 °C 17,8 km/h (3 Bft)
31.01.2026 20:00 22,3 °C -2,6 °C 48 % 87 % 1012,5 hPa 0,0 l/m² 7,8 km/h (2 Bft) O-NO 0,00 h 0 W/m² -4,5 °C -4,6 °C 12,5 km/h (2 Bft)
31.01.2026 21:00 22,6 °C -3,1 °C 49 % 86 % 1013,0 hPa 0,0 l/m² 9,0 km/h (2 Bft) O-NO 0,00 h 0 W/m² -5,1 °C -5,9 °C 14,1 km/h (3 Bft)
31.01.2026 22:00 22,7 °C -3,3 °C 48 % 86 % 1013,1 hPa 0,0 l/m² 9,7 km/h (2 Bft) O-NO 0,00 h 0 W/m² -5,3 °C -6,8 °C 14,4 km/h (3 Bft)
31.01.2026 23:00 22,5 °C -3,5 °C 48 % 86 % 1013,2 hPa 0,0 l/m² 11,1 km/h (2 Bft) O-NO 0,00 h 0 W/m² -5,6 °C -8,2 °C 16,7 km/h (3 Bft)
01.02.2026 00:00 22,4 °C -3,7 °C 47 % 85 % 1013,3 hPa 0,0 l/m² 10,5 km/h (2 Bft) O-NO 0,00 h 0 W/m² -5,9 °C -8,0 °C 16,0 km/h (3 Bft)
01.02.2026 01:00 22,4 °C -3,8 °C 47 % 85 % 1013,3 hPa 0,0 l/m² 8,7 km/h (2 Bft) O-NO 0,00 h 0 W/m² -6,0 °C -6,5 °C 13,2 km/h (3 Bft)
01.02.2026 02:00 22,3 °C -3,9 °C 47 % 85 % 1013,5 hPa 0,0 l/m² 7,7 km/h (2 Bft) O-NO 0,00 h 0 W/m² -6,1 °C -5,7 °C 12,3 km/h (2 Bft)
01.02.2026 03:00 22,4 °C -4,0 °C 47 % 84 % 1013,5 hPa 0,0 l/m² 9,2 km/h (2 Bft) O-NO 0,00 h 0 W/m² -6,2 °C -7,0 °C 13,6 km/h (3 Bft)
01.02.2026 04:00 22,3 °C -4,0 °C 46 % 84 % 1013,3 hPa 0,0 l/m² 11,2 km/h (2 Bft) O 0,00 h 0 W/m² -6,3 °C -8,7 °C 15,7 km/h (3 Bft)
01.02.2026 05:00 22,3 °C -4,1 °C 46 % 84 % 1013,3 hPa 0,0 l/m² 9,3 km/h (2 Bft) O 0,00 h 0 W/m² -6,5 °C -7,2 °C 13,2 km/h (3 Bft)
01.02.2026 06:00 22,3 °C -4,1 °C 46 % 83 % 1013,5 hPa 0,0 l/m² 9,0 km/h (2 Bft) O 0,00 h 0 W/m² -6,6 °C -7,1 °C 12,6 km/h (3 Bft)
01.02.2026 07:00 22,2 °C -4,3 °C 46 % 83 % 1014,0 hPa 0,0 l/m² 11,4 km/h (2 Bft) O 0,00 h 0 W/m² -6,7 °C -9,3 °C 15,5 km/h (3 Bft)
01.02.2026 08:00 22,3 °C -4,4 °C 47 % 83 % 1014,0 hPa 0,0 l/m² 13,6 km/h (3 Bft) O 0,00 h 26 W/m² -6,8 °C -11,2 °C 18,3 km/h (3 Bft)
01.02.2026 09:00 22,4 °C -4,5 °C 48 % 83 % 1014,1 hPa 0,0 l/m² 16,3 km/h (3 Bft) O 0,93 h 77 W/m² -6,9 °C -13,2 °C 21,2 km/h (4 Bft)
01.02.2026 10:00 22,3 °C -4,3 °C 45 % 83 % 1013,9 hPa 0,0 l/m² 17,3 km/h (3 Bft) O 1,00 h 148 W/m² -6,8 °C -13,6 °C 22,0 km/h (4 Bft)
01.02.2026 11:00 22,2 °C -4,1 °C 45 % 83 % 1013,8 hPa 0,0 l/m² 15,2 km/h (3 Bft) O-NO 1,00 h 193 W/m² -6,6 °C -11,9 °C 19,9 km/h (4 Bft)
01.02.2026 12:00 22,2 °C -3,7 °C 45 % 82 % 1013,5 hPa 0,0 l/m² 14,8 km/h (3 Bft) O 1,00 h 207 W/m² -6,3 °C -11,1 °C 19,7 km/h (3 Bft)
01.02.2026 13:00 22,2 °C -3,5 °C 46 % 82 % 1013,2 hPa 0,0 l/m² 15,3 km/h (3 Bft) O 0,98 h 194 W/m² -6,1 °C -11,4 °C 20,5 km/h (4 Bft)
01.02.2026 14:00 22,3 °C -3,4 °C 46 % 82 % 1012,9 hPa 0,0 l/m² 14,4 km/h (3 Bft) O 1,00 h 124 W/m² -6,1 °C -10,6 °C 19,9 km/h (4 Bft)
01.02.2026 15:00 22,3 °C -3,6 °C 46 % 81 % 1012,9 hPa 0,0 l/m² 13,3 km/h (3 Bft) O-NO 0,82 h 69 W/m² -6,3 °C -10,0 °C 19,4 km/h (3 Bft)
01.02.2026 16:00 22,2 °C -4,2 °C 46 % 82 % 1012,9 hPa 0,0 l/m² 13,6 km/h (3 Bft) O-NO 0,00 h 20 W/m² -6,9 °C -10,9 °C 20,5 km/h (4 Bft)
01.02.2026 17:00 22,3 °C -4,7 °C 46 % 82 % 1013,0 hPa 0,0 l/m² 13,2 km/h (3 Bft) O 0,00 h 0 W/m² -7,3 °C -11,2 °C 19,0 km/h (3 Bft)
01.02.2026 18:00 22,3 °C -5,1 °C 46 % 83 % 1012,8 hPa 0,0 l/m² 12,7 km/h (3 Bft) O 0,00 h 0 W/m² -7,5 °C -11,2 °C 17,6 km/h (3 Bft)
01.02.2026 19:00 22,2 °C -5,3 °C 46 % 83 % 1012,7 hPa 0,0 l/m² 10,7 km/h (2 Bft) O 0,00 h 0 W/m² -7,7 °C -9,8 °C 16,2 km/h (3 Bft)
01.02.2026 20:00 22,2 °C -5,2 °C 46 % 84 % 1012,5 hPa 0,0 l/m² 9,7 km/h (2 Bft) O-NO 0,00 h 0 W/m² -7,5 °C -8,9 °C 14,3 km/h (3 Bft)
01.02.2026 21:00 22,2 °C -5,1 °C 45 % 83 % 1012,5 hPa 0,0 l/m² 11,6 km/h (2 Bft) O 0,00 h 0 W/m² -7,5 °C -10,3 °C 16,5 km/h (3 Bft)
01.02.2026 22:00 22,1 °C -4,9 °C 45 % 83 % 1012,5 hPa 0,0 l/m² 11,2 km/h (2 Bft) O 0,00 h 0 W/m² -7,4 °C -9,8 °C 15,7 km/h (3 Bft)
01.02.2026 23:00 22,1 °C -4,9 °C 45 % 83 % 1012,4 hPa 0,0 l/m² 9,5 km/h (2 Bft) O-NO 0,00 h 0 W/m² -7,3 °C -8,3 °C 14,3 km/h (3 Bft)
Min-Datum _ 30.01.26 01.02.26 30.01.26 01.02.26 26.01.26 - 30.01.26 - - - 01.02.26 01.02.26 30.01.26
_ Min-Zeit 16:01 20:00 15:28 16:03 05:08 - 22:25 - - - 20:00 10:01 22:29
Minimum _ 21,6 °C -5,3 °C 37 % 81 % 994,2 hPa - 0,0 km/h (0 Bft) - - - -7,7 °C -16,3 °C 0,0 km/h (0 Bft)
Max-Datum _ 31.01.26 27.01.26 27.01.26 28.01.26 01.02.26 27.01.26 31.01.26 - 01.02.26 01.02.26 27.01.26 27.01.26 31.01.26
_ Max-Zeit 22:01 12:00 05:00 10:00 09:48 13:01 09:28 - 12:06 12:12 11:44 12:00 10:07
Maximum _ 22,7 °C 1,7 °C 51 % 94 % 1014,3 hPa 0,8 l/m² 25,2 km/h
O (4 Bft)
- 0,08 h 218 W/m² 0,7 °C 1,7 °C 32,2 km/h
O (5 Bft)
Durchschnitt _ 22,3 °C -1,3 °C 47 % 90 % 1003,6 hPa #3,8 l/m² 7,9 km/h (2 Bft) O-NO #33:11 h 26 W/m² -2,8 °C -3,9 °C 12,5 km/h (2 Bft)
© 2009 Mathias Hoßbach